timestamp,surface_pressure_avg,surface_temp_avg,battery_voltage,lat,long
2021-04-24 00:09:01+00:00,255.5215,3.2,13.05,47.84626,-54.09684
2021-04-24 00:19:01+00:00,246.1531,3.2,12.73,47.84626,-54.09684
2021-04-24 00:29:01+00:00,239.1098,3.23,12.73,47.84626,-54.09684
2021-04-24 00:39:01+00:00,238.0664,3.27,12.73,47.84626,-54.09684
2021-04-24 00:49:01+00:00,235.9431,3.27,12.73,47.84626,-54.09684
2021-04-24 00:59:01+00:00,227.9998,3.27,12.73,47.84626,-54.09684
2021-04-24 01:09:01+00:00,224.4164,3.27,12.73,47.84626,-54.09684
2021-04-24 01:19:01+00:00,225.6464,3.29,12.65,47.84626,-54.09684
2021-04-24 01:29:01+00:00,219.3947,3.29,12.65,47.84626,-54.09684
2021-04-24 01:39:01+00:00,213.7498,3.29,12.65,47.84626,-54.09684
2021-04-24 01:49:01+00:00,217.8364,3.3,12.65,47.84626,-54.09684
2021-04-24 01:59:01+00:00,217.7014,3.3,12.65,47.84626,-54.09684
2021-04-24 02:09:01+00:00,210.6847,3.3,12.65,47.84626,-54.09684
2021-04-24 02:19:00+00:00,208.8931,3.3,12.65,47.84626,-54.09684
2021-04-24 02:29:00+00:00,212.6381,3.3,12.65,47.84626,-54.09684
2021-04-24 02:39:00+00:00,209.1648,3.3,12.65,47.84626,-54.09684
2021-04-24 02:49:00+00:00,202.4248,3.3,12.65,47.84626,-54.09684
2021-04-24 02:59:00+00:00,206.1864,3.3,12.65,47.84626,-54.09684
2021-04-24 03:09:00+00:00,211.1798,3.3,12.65,47.84626,-54.09684
2021-04-24 03:19:01+00:00,207.6248,3.3,12.65,47.84626,-54.09684
2021-04-24 03:29:01+00:00,206.7297,3.3,12.65,47.84626,-54.09684
2021-04-24 03:39:01+00:00,213.0547,3.3,12.65,47.84626,-54.09684
2021-04-24 03:49:01+00:00,212.1231,3.3,12.65,47.84626,-54.09684
2021-04-24 03:59:01+00:00,210.3931,3.3,12.65,47.84626,-54.09684
2021-04-24 04:09:01+00:00,216.5215,3.3,12.65,47.84626,-54.09684
2021-04-24 04:19:00+00:00,220.9497,3.3,12.65,47.84626,-54.09684
2021-04-24 04:29:00+00:00,218.0448,3.29,12.65,47.84626,-54.09684
2021-04-24 04:39:00+00:00,219.2914,3.3,12.65,47.84626,-54.09684
2021-04-24 04:49:00+00:00,226.1398,3.3,12.65,47.84626,-54.09684
2021-04-24 04:59:00+00:00,227.0998,3.3,12.65,47.84626,-54.09684
2021-04-24 05:09:00+00:00,227.7514,3.3,12.65,47.84626,-54.09684
2021-04-24 05:19:00+00:00,232.5631,3.3,12.65,47.84626,-54.09684
2021-04-24 05:29:00+00:00,235.2164,3.3,12.65,47.84626,-54.09684
2021-04-24 05:39:00+00:00,235.6464,3.3,12.65,47.84626,-54.09684
2021-04-24 05:49:00+00:00,243.7431,3.3,12.65,47.84626,-54.09684
2021-04-24 05:59:00+00:00,254.2231,3.3,12.65,47.84626,-54.09684
2021-04-24 06:09:00+00:00,258.3647,3.3,12.65,47.84626,-54.09684
2021-04-24 06:19:00+00:00,260.2632,3.3,12.57,47.84626,-54.09684
2021-04-24 06:29:00+00:00,268.1514,3.3,12.57,47.84626,-54.09684
2021-04-24 06:39:00+00:00,277.1164,3.3,12.57,47.84626,-54.09684
2021-04-24 06:49:00+00:00,281.8181,3.3,12.57,47.84626,-54.09684
2021-04-24 06:59:00+00:00,288.1997,3.3,12.57,47.84626,-54.09684
2021-04-24 07:09:00+00:00,300.0247,3.3,12.57,47.84626,-54.09684
2021-04-24 07:19:01+00:00,309.9547,3.3,12.57,47.84626,-54.09684
2021-04-24 07:29:01+00:00,316.2897,3.29,12.57,47.84626,-54.09684
2021-04-24 07:39:01+00:00,319.9597,3.29,12.57,47.84626,-54.09684
2021-04-24 07:49:01+00:00,326.903,3.29,12.57,47.84626,-54.09684
2021-04-24 07:59:01+00:00,329.9547,3.29,12.57,47.84626,-54.09684
2021-04-24 08:09:01+00:00,333.4597,3.3,12.57,47.84626,-54.09684
2021-04-24 08:19:01+00:00,340.2529,3.29,12.57,47.84626,-54.09684
2021-04-24 08:29:01+00:00,343.9047,3.29,12.57,47.84626,-54.09684
2021-04-24 08:39:01+00:00,341.1296,3.24,12.57,47.84626,-54.09684
2021-04-24 08:49:01+00:00,344.4929,3.22,12.57,47.84626,-54.09684
2021-04-24 08:59:01+00:00,355.1413,3.2,12.57,47.84626,-54.09684
2021-04-24 09:09:01+00:00,353.9096,3.2,12.57,47.84626,-54.09684
2021-04-24 09:19:01+00:00,347.5312,3.2,12.49,47.84626,-54.09684
2021-04-24 09:29:01+00:00,355.1729,3.2,12.49,47.84626,-54.09684
2021-04-24 09:39:01+00:00,357.2379,3.2,12.49,47.84626,-54.09684
2021-04-24 09:49:01+00:00,351.6563,3.18,12.49,47.84626,-54.09684
2021-04-24 09:59:01+00:00,347.6163,3.18,12.49,47.84626,-54.09684
2021-04-24 10:09:01+00:00,354.4979,3.17,12.49,47.84626,-54.09684
2021-04-24 10:19:01+00:00,354.11800000000005,3.1,12.57,47.84626,-54.09684
2021-04-24 10:29:01+00:00,346.1796,3.1,12.57,47.84626,-54.09684
2021-04-24 10:39:01+00:00,344.2463,3.1,12.57,47.84626,-54.09684
2021-04-24 10:49:01+00:00,342.7296,3.1,12.57,47.84626,-54.09684
2021-04-24 10:59:01+00:00,336.4846,3.1,12.57,47.84626,-54.09684
2021-04-24 11:09:01+00:00,329.5113,3.09,12.57,47.84626,-54.09684
2021-04-24 11:19:00+00:00,327.2997,3.08,12.57,47.84626,-54.09684
2021-04-24 11:29:00+00:00,325.1147,3.08,12.57,47.84626,-54.09684
2021-04-24 11:39:00+00:00,316.8246,3.09,12.57,47.84626,-54.09684
2021-04-24 11:49:00+00:00,310.9664,3.1,12.57,47.84626,-54.09684
2021-04-24 11:59:00+00:00,302.3013,3.1,12.57,47.84626,-54.09684
2021-04-24 12:09:00+00:00,294.708,3.1,12.57,47.84626,-54.09684
2021-04-24 12:19:01+00:00,290.1047,3.1,12.73,47.84626,-54.09684
2021-04-24 12:29:01+00:00,282.308,3.1,12.73,47.84626,-54.09684
2021-04-24 12:39:01+00:00,271.2581,3.17,12.73,47.84626,-54.09684
2021-04-24 12:49:01+00:00,269.0197,3.2,12.73,47.84626,-54.09684
2021-04-24 12:59:01+00:00,264.1647,3.29,12.73,47.84626,-54.09684
2021-04-24 13:09:01+00:00,255.3014,3.34,12.73,47.84626,-54.09684
2021-04-24 13:19:01+00:00,245.4531,3.4,14.16,47.84626,-54.09684
2021-04-24 13:29:01+00:00,242.4514,3.4,14.16,47.84626,-54.09684
2021-04-24 13:39:01+00:00,237.5415,3.4,14.16,47.84626,-54.09684
2021-04-24 13:49:01+00:00,228.2947,3.4,14.16,47.84626,-54.09684
2021-04-24 13:59:01+00:00,219.4248,3.42,14.16,47.84626,-54.09684
2021-04-24 14:09:01+00:00,216.7847,3.4,14.16,47.84626,-54.09684
2021-04-24 14:19:01+00:00,214.7281,3.4,14.64,47.84626,-54.09684
2021-04-24 14:29:01+00:00,211.0964,3.42,14.64,47.84626,-54.09684
2021-04-24 14:39:01+00:00,208.2281,3.45,14.64,47.84626,-54.09684
2021-04-24 14:49:01+00:00,204.8481,3.48,14.64,47.84626,-54.09684
2021-04-24 14:59:01+00:00,202.0815,3.5,14.64,47.84626,-54.09684
2021-04-24 15:09:01+00:00,203.2464,3.49,14.64,47.84626,-54.09684
2021-04-24 15:19:01+00:00,202.5915,3.49,14.64,47.84626,-54.09684
2021-04-24 15:29:01+00:00,197.9265,3.5,14.64,47.84626,-54.09684
2021-04-24 15:39:01+00:00,196.9514,3.5,14.64,47.84626,-54.09684
2021-04-24 15:49:01+00:00,198.5748,3.5,14.64,47.84626,-54.09684
2021-04-24 15:59:01+00:00,195.4781,3.5,14.64,47.84626,-54.09684
2021-04-24 16:09:01+00:00,192.6815,3.5,14.64,47.84626,-54.09684
2021-04-24 16:19:01+00:00,199.1331,3.5,14.56,47.84626,-54.09684
2021-04-24 16:29:01+00:00,209.1514,3.5,14.56,47.84626,-54.09684
2021-04-24 16:39:01+00:00,207.8065,3.5,14.56,47.84626,-54.09684
2021-04-24 16:49:01+00:00,207.2998,3.5,14.56,47.84626,-54.09684
2021-04-24 16:59:01+00:00,214.6914,3.5,14.56,47.84626,-54.09684
2021-04-24 17:09:01+00:00,219.9115,3.5,14.56,47.84626,-54.09684
2021-04-24 17:19:01+00:00,220.2098,3.5,14.32,47.84626,-54.09684
2021-04-24 17:29:01+00:00,223.2114,3.47,14.32,47.84626,-54.09684
2021-04-24 17:39:01+00:00,228.5481,3.47,14.32,47.84626,-54.09684
2021-04-24 17:49:01+00:00,230.4248,3.47,14.32,47.84626,-54.09684
2021-04-24 17:59:01+00:00,236.8014,3.4,14.32,47.84626,-54.09684
2021-04-24 18:09:01+00:00,246.3047,3.4,14.32,47.84626,-54.09684
2021-04-24 18:19:01+00:00,251.7364,3.4,14.16,47.84626,-54.09684
2021-04-24 18:29:01+00:00,252.6948,3.31,14.16,47.84626,-54.09684
2021-04-24 18:39:01+00:00,261.2698,3.32,14.16,47.84626,-54.09684
2021-04-24 18:49:01+00:00,271.3014,3.33,14.16,47.84626,-54.09684
2021-04-24 18:59:01+00:00,274.8514,3.3,14.16,47.84626,-54.09684
2021-04-24 19:09:01+00:00,277.0231,3.3,14.16,47.84626,-54.09684
2021-04-24 19:19:01+00:00,288.0714,3.3,14.16,47.84626,-54.09684
2021-04-24 19:29:01+00:00,296.2913,3.3,14.16,47.84626,-54.09684
2021-04-24 19:39:01+00:00,299.783,3.3,14.16,47.84626,-54.09684
2021-04-24 19:49:01+00:00,306.5364,3.3,14.16,47.84626,-54.09684
2021-04-24 19:59:01+00:00,316.4863,3.3,14.16,47.84626,-54.09684
2021-04-24 20:09:01+00:00,321.2997,3.3,14.16,47.84626,-54.09684
2021-04-24 20:19:01+00:00,326.558,3.3,14.0,47.84626,-54.09684
2021-04-24 20:29:01+00:00,330.7079,3.3,14.0,47.84626,-54.09684
2021-04-24 20:39:01+00:00,335.3663,3.3,14.0,47.84626,-54.09684
2021-04-24 20:49:01+00:00,337.5129,3.3,14.0,47.84626,-54.09684
2021-04-24 20:59:01+00:00,340.2679,3.3,14.0,47.84626,-54.09684
2021-04-24 21:09:01+00:00,340.958,3.3,14.0,47.84626,-54.09684
2021-04-24 21:19:01+00:00,343.2112,3.3,13.76,47.84626,-54.09684
2021-04-24 21:29:01+00:00,345.4729,3.3,13.76,47.84626,-54.09684
2021-04-24 21:39:01+00:00,343.4329,3.3,13.76,47.84626,-54.09684
2021-04-24 21:49:01+00:00,340.968,3.3,13.76,47.84626,-54.09684
2021-04-24 21:59:01+00:00,342.283,3.3,13.76,47.84626,-54.09684
2021-04-24 22:09:01+00:00,347.9996,3.3,13.76,47.84626,-54.09684
2021-04-24 22:19:00+00:00,344.9979,3.33,13.53,47.84626,-54.09684
2021-04-24 22:29:00+00:00,339.9347,3.33,13.53,47.84626,-54.09684
2021-04-24 22:39:00+00:00,343.94800000000015,3.33,13.53,47.84626,-54.09684
2021-04-24 22:49:00+00:00,347.2596,3.32,13.53,47.84626,-54.09684
2021-04-24 22:59:00+00:00,338.9597,3.39,13.53,47.84626,-54.09684
2021-04-24 23:09:00+00:00,333.983,3.4,13.53,47.84626,-54.09684
2021-04-24 23:19:01+00:00,334.858,3.4,13.13,47.84626,-54.09684
2021-04-24 23:29:01+00:00,326.9631,3.4,13.13,47.84626,-54.09684
2021-04-24 23:39:01+00:00,314.8697,3.4,13.13,47.84626,-54.09684
2021-04-24 23:49:01+00:00,311.968,3.4,13.13,47.84626,-54.09684
2021-04-24 23:59:01+00:00,311.408,3.4,13.13,47.84626,-54.09684
